Whitecourt,

10:05 PM MDT on August 20, 2017 (GMT -0600)
Whitecourt

Weather History for CYZU - March, 2013

Change the Weather History Date:

Tuesday, March 12, 2013

  Actual Average Record
Temperature  
Mean Temperature 24 °F -  
Max Temperature 37 °F 27 °F 57 °F (2014)
Min Temperature 12 °F 10 °F -9 °F (2011)
Degree Days  
Heating Degree Days 40    
Moisture  
Dew Point 14 °F    
Average Humidity 63    
Maximum Humidity 93    
Minimum Humidity 25    
Precipitation  
Precipitation 0.00 in - - ()
Sea Level Pressure  
Sea Level Pressure 29.97 in    
Wind  
Wind Speed 2 mph ()    
Max Wind Speed 12 mph    
Max Gust Speed -    
Visibility 15.0 miles    
Events      
Averages and records for this station are not official NWS values.
T = Trace of Precipitation, MM = Missing Value Source: Averaged Metar Reports

Daily Weather History Graph

Daily Weather History Graph

Search for Another Location

Airport or City:

Trip Planner

Search our weather history database for the weather conditions in past years. The results will help you decide how hot, cold, wet, or windy it might be!

Date:

Astronomy

Mar. 12, 2013 Rise Set
Actual Time 8:04 AM MDT 7:42 PM MDT
Civil Twilight 7:29 AM MDT 8:17 PM MDT
Nautical Twilight 6:47 AM MDT 8:58 PM MDT
Astronomical Twilight 6:05 AM MDT 9:41 PM MDT
Moon 7:59 AM MDT (3/12) 9:21 PM MDT (3/12)
Length of Visible Light 12h 48m
Length of Day
11h 37m
New Moon, 1% of the Moon is Illuminated
Mar 12
New Moon
Mar 19
First Quarter
Mar 27
Full
Apr 2
Last Quarter
Apr 10
New

Hourly Weather History & Observations

Time (MDT) Temp. Windchill Dew Point Humidity Pressure Visibility Wind Dir Wind Speed Gust Speed Precip Events Conditions
6:00 AM 17 °F - 14 °F 81% 30.10 in 15 mi Calm Calm - -   Clear
6:00 AM 15.8 °F - 14.0 °F 93% 30.10 in 15.0 mi Calm Calm - N/A   Scattered Clouds
7:00 AM 15.8 °F - 12.2 °F 86% 30.09 in 15.0 mi Calm Calm - N/A   Mostly Cloudy
8:00 AM 14.0 °F - 10.4 °F 86% 30.08 in 15.0 mi Calm Calm - N/A   Mostly Cloudy
9:00 AM 14.0 °F - 10.4 °F 86% 30.07 in 15.0 mi NNW 2.3 mph - N/A   Mostly Cloudy
10:00 AM 15.8 °F 10.2 °F 12.2 °F 86% 30.05 in 15.0 mi NW 3.5 mph - N/A   Overcast
11:00 AM 19.4 °F - 14.0 °F 80% 30.03 in 15.0 mi Calm Calm - N/A   Overcast
12:00 PM 24 °F - 16 °F 61% 29.99 in 15 mi NNW 2.3 mph - -   Overcast
12:00 PM 23.0 °F - 15.8 °F 74% 29.99 in 15.0 mi NNW 2.3 mph - N/A   Overcast
1:00 PM 28.4 °F - 15.8 °F 59% 29.97 in 15.0 mi Calm Calm - N/A   Mostly Cloudy
2:00 PM 33.8 °F - 15.8 °F 48% 29.95 in 15.0 mi Calm Calm - N/A   Overcast
3:00 PM 35.6 °F - 14.0 °F 41% 29.91 in 15.0 mi Calm Calm - N/A   Mostly Cloudy
4:00 PM 35.6 °F 32.8 °F 14.0 °F 41% 29.89 in 15.0 mi ESE 3.5 mph - N/A   Overcast
5:00 PM 37.4 °F 33.8 °F 14.0 °F 38% 29.88 in 15.0 mi South 4.6 mph - N/A   Overcast
6:00 PM 36 °F - 13 °F 25% 29.89 in 15 mi SE 2.3 mph - -   Overcast
6:00 PM 35.6 °F - 12.2 °F 38% 29.89 in 15.0 mi SE 2.3 mph - N/A   Overcast
7:00 PM 32.0 °F 24.2 °F 17.6 °F 55% 29.88 in 15.0 mi East 9.2 mph - N/A   Overcast
8:00 PM 30.2 °F 20.8 °F 15.8 °F 55% 29.89 in 15.0 mi East 11.5 mph - N/A   Overcast
9:00 PM 28.4 °F 20.4 °F 15.8 °F 59% 29.91 in 15.0 mi East 8.1 mph - N/A   Mostly Cloudy
10:00 PM 24.8 °F 17.9 °F 14.0 °F 64% 29.91 in 15.0 mi East 5.8 mph - N/A   Partly Cloudy